Weather History for Baker, MT

Change the Weather History Date:

Wednesday, January 2, 2013

  Actual Average Record
Temperature  
Mean Temperature 22 °F -  
Max Temperature 26 °F 36 °F 43 °F (2003)
Min Temperature 19 °F 24 °F -13 °F (2005)
Degree Days  
Heating Degree Days 42    
Moisture  
Dew Point 16 °F    
Average Humidity 76    
Maximum Humidity 86    
Minimum Humidity 68    
Precipitation  
Precipitation 0.00 in - - ()
Sea Level Pressure  
Sea Level Pressure 30.17 in    
Wind  
Wind Speed 18 mph (NW)    
Max Wind Speed 24 mph    
Max Gust Speed 33 mph    
Visibility 8 miles    
Events Snow    
Averages and records for this station are not official NWS values.
T = Trace of Precipitation, MM = Missing Value Source: NWS Daily Summary

Daily Weather History Graph

Daily Weather History Graph

Search for Another Location

Airport:

Trip Planner

Search our weather history database for the weather conditions in past years. The results will help you decide how hot, cold, wet, or windy it might be!

Date:

Astronomy

Jan. 02, 2013 Rise Set
Actual Time 7:40 AM MST 4:22 PM MST
Civil Twilight 7:05 AM MST 4:57 PM MST
Nautical Twilight 6:27 AM MST 5:35 PM MST
Astronomical Twilight 5:51 AM MST 6:11 PM MST
Moon 10:18 PM MST (1/2) 10:04 AM MST (1/2)
Length of Visible Light 9h 51m
Length of Day
8h 42m
Waning Gibbous, 74% of the Moon is Illuminated
Jan 2
Waning Gibbous
Jan 4
Last Quarter
Jan 11
New
Jan 18
First Quarter
Jan 26
Full

Hourly Weather History & Observations

Time (MST) Temp. Windchill Dew Point Humidity Pressure Visibility Wind Dir Wind Speed Gust Speed Precip Events Conditions
12:07 AM 26.6 °F 13.4 °F 17.6 °F 69% 30.02 in 10.0 mi WNW 18.4 mph 26.5 mph N/A   Overcast
12:12 AM 26.6 °F 13.4 °F 17.6 °F 69% 30.03 in 10.0 mi NW 18.4 mph 25.3 mph N/A   Overcast
12:17 AM 26.6 °F 12.7 °F 17.6 °F 69% 30.03 in 8.0 mi WNW 20.7 mph 28.8 mph 0.00 in Snow Light Snow
12:27 AM 26.6 °F 12.0 °F 19.4 °F 74% 30.02 in 2.5 mi WNW 23.0 mph 33.4 mph 0.00 in Snow Light Snow
12:37 AM 24.8 °F 9.3 °F 19.4 °F 80% 30.02 in 4.0 mi WNW 24.2 mph 31.1 mph 0.00 in Snow Light Snow
1:51 AM 25.0 °F 10.9 °F 19.0 °F 78% 30.12 in 9.0 mi WNW 19.6 mph 26.5 mph 0.00 in Snow Light Snow
1:59 AM 24.8 °F 10.3 °F 19.4 °F 80% 30.03 in 3.0 mi WNW 20.7 mph 27.6 mph 0.00 in Snow Light Snow
2:14 AM 24.8 °F 11.1 °F 19.4 °F 80% 30.03 in 4.0 mi WNW 18.4 mph 26.5 mph 0.00 in Snow Light Snow
2:30 AM 24.8 °F 11.5 °F 19.4 °F 80% 30.03 in 10.0 mi WNW 17.3 mph 27.6 mph 0.00 in   Overcast
2:51 AM 25.0 °F 10.9 °F 19.0 °F 78% 30.14 in 10.0 mi WNW 19.6 mph 26.5 mph 0.00 in   Overcast
3:33 AM 24.8 °F 11.5 °F 17.6 °F 74% 30.04 in 10.0 mi WNW 17.3 mph - N/A   Overcast
3:51 AM 25.0 °F 10.9 °F 18.0 °F 75% 30.14 in 10.0 mi WNW 19.6 mph 26.5 mph N/A   Overcast
4:51 AM 25.0 °F 12.2 °F 17.1 °F 72% 30.15 in 10.0 mi WNW 16.1 mph 24.2 mph N/A   Overcast
5:51 AM 24.1 °F 11.5 °F 17.1 °F 75% 30.14 in 10.0 mi WNW 15.0 mph - 0.00 in Snow Light Snow
6:03 AM 24.8 °F 12.9 °F 17.6 °F 74% 30.04 in 1.8 mi WNW 13.8 mph - 0.00 in Snow Light Snow
6:13 AM 24.8 °F 14.6 °F 17.6 °F 74% 30.04 in 3.0 mi West 10.4 mph 20.7 mph 0.00 in Snow Light Snow
6:23 AM 23.0 °F 11.1 °F 17.6 °F 80% 30.03 in 8.0 mi WNW 12.7 mph - 0.00 in Snow Light Snow
6:51 AM 21.9 °F 8.7 °F 15.1 °F 75% 30.14 in 10.0 mi WNW 15.0 mph - 0.00 in   Partly Cloudy
7:51 AM 21.9 °F 9.2 °F 14.0 °F 72% 30.15 in 10.0 mi WNW 13.8 mph - 0.00 in Snow Light Snow
8:51 AM 21.9 °F 7.3 °F 12.9 °F 68% 30.16 in 9.0 mi WNW 18.4 mph 26.5 mph 0.00 in Snow Light Snow
9:51 AM 21.0 °F 4.6 °F 12.9 °F 71% 30.18 in 7.0 mi WNW 23.0 mph 27.6 mph 0.00 in Snow Light Snow
10:51 AM 21.0 °F 6.6 °F 12.9 °F 71% 30.21 in 9.0 mi WNW 17.3 mph 28.8 mph 0.00 in Snow Light Snow
11:23 AM 21.2 °F 6.0 °F 14.0 °F 74% 30.10 in 8.0 mi WNW 19.6 mph 27.6 mph 0.00 in Snow Light Snow
11:51 AM 21.0 °F 5.4 °F 15.1 °F 78% 30.21 in 8.0 mi NW 20.7 mph 27.6 mph 0.00 in Snow Light Snow
1:51 PM 21.9 °F 7.8 °F 16.0 °F 78% 30.25 in 10.0 mi NW 17.3 mph - 0.00 in   Overcast
2:51 PM 21.9 °F 7.3 °F 16.0 °F 78% 30.27 in 10.0 mi NW 18.4 mph - 0.00 in   Overcast
4:39 PM 21.2 °F 6.4 °F 15.8 °F 80% 30.20 in 9.0 mi NW 18.4 mph - 0.00 in Snow Light Snow
4:44 PM 21.2 °F 6.4 °F 15.8 °F 80% 30.21 in 9.0 mi NW 18.4 mph - 0.00 in Snow Light Snow
4:51 PM 21.0 °F 7.1 °F 16.0 °F 81% 30.32 in 9.0 mi NW 16.1 mph - 0.00 in Snow Light Snow
5:51 PM 21.0 °F 6.2 °F 15.1 °F 78% 30.34 in 6.0 mi NNW 18.4 mph 25.3 mph 0.00 in Snow Light Snow
6:36 PM 19.4 °F 7.2 °F 15.8 °F 86% 30.24 in 9.0 mi NNW 11.5 mph - 0.00 in Snow Light Snow
6:51 PM 19.9 °F 7.9 °F 14.0 °F 78% 30.37 in 9.0 mi NNW 11.5 mph 20.7 mph 0.00 in Snow Light Snow
7:51 PM 19.0 °F 6.8 °F 12.9 °F 77% 30.38 in 10.0 mi NW 11.5 mph - 0.00 in   Overcast
8:07 PM 19.4 °F 7.2 °F 12.2 °F 74% 30.25 in 10.0 mi NW 11.5 mph - N/A   Overcast
8:40 PM 19.4 °F 8.6 °F 12.2 °F 74% 30.25 in 10.0 mi NW 9.2 mph - N/A   Overcast
8:51 PM 19.0 °F 8.2 °F 12.9 °F 77% 30.38 in 10.0 mi NW 9.2 mph - N/A   Overcast
9:51 PM 19.0 °F 8.2 °F 12.9 °F 77% 30.39 in 10.0 mi NW 9.2 mph - N/A   Overcast
10:51 PM 19.9 °F 8.6 °F 14.0 °F 78% 30.38 in 10.0 mi WNW 10.4 mph - N/A   Overcast
11:51 PM 19.9 °F 5.7 °F 14.0 °F 78% 30.37 in 10.0 mi WNW 16.1 mph - N/A   Overcast